Change the Weather History Date:

Saturday, April 12, 2014

  Actual Average (KTRI) Record (KTRI)
Temperature  
Mean Temperature 61 °F 54 °F  
Max Temperature 78 °F 67 °F 84 °F (1945)
Min Temperature 44 °F 41 °F 25 °F (1989)
Degree Days  
Heating Degree Days 4 11  
Month to date heating degree days 150  
Since 1 July heating degree days 4100  
Cooling Degree Days 0 0  
Month to date cooling degree days 0  
Year to date cooling degree days 1  
Growing Degree Days 11 (Base 50)    
Moisture  
Dew Point 45 °F    
Average Humidity 60    
Maximum Humidity 93    
Minimum Humidity 29    
Precipitation  
Precipitation 0.00 in 0.11 in 1.05 in (1959)
Month to date precipitation 1.31  
Year to date precipitation 11.57  
Snow  
Snow 0.00 in 0.10 in - ()
Month to date snowfall 0.6  
Since 1 July snowfall 12.8  
Snow Depth -    
Sea Level Pressure  
Sea Level Pressure 30.16 in    
Wind  
Wind Speed 0 mph (SW)    
Max Wind Speed 8 mph    
Max Gust Speed 13 mph    
Visibility 10 miles    
Events      
T = Trace of Precipitation, MM = Missing Value Source: NWS Daily Summary

Daily Weather History Graph

Daily Weather History Graph

Search for Another Location

Airport or City:

Trip Planner

Search our weather history database for the weather conditions in past years. The results will help you decide how hot, cold, wet, or windy it might be!

Date:

Astronomy

Apr. 12, 2014 Rise Set
Actual Time 6:59 AM EDT 8:00 PM EDT
Civil Twilight 6:32 AM EDT 8:26 PM EDT
Nautical Twilight 6:01 AM EDT 8:58 PM EDT
Astronomical Twilight 5:29 AM EDT 9:30 PM EDT
Moon 5:41 PM EDT (4/12) 5:20 AM EDT (4/12)
Length of Visible Light 13h 53m
Length of Day
13h 00m
Waxing Gibbous, 93% of the Moon is Illuminated
Apr 12
Waxing Gibbous
Apr 15
Full
Apr 22
Last Quarter
Apr 29
New
May 6
First Quarter

Hourly Weather History & Observations

Time (EDT) Temp. Dew Point Humidity Pressure Visibility Wind Dir Wind Speed Gust Speed Precip Events Conditions
12:15 AM 51.8 °F 42.8 °F 71% 30.17 in 10.0 mi Calm Calm - N/A   Overcast
12:35 AM 51.8 °F 42.8 °F 71% 30.17 in 10.0 mi Calm Calm - N/A   Overcast
12:55 AM 51.8 °F 42.8 °F 71% 30.17 in 10.0 mi Calm Calm - N/A   Overcast
1:15 AM 51.8 °F 44.6 °F 76% 30.16 in 10.0 mi Calm Calm - N/A   Overcast
1:35 AM 50.0 °F 42.8 °F 76% 30.16 in 10.0 mi Calm Calm - N/A   Partly Cloudy
1:55 AM 50.0 °F 42.8 °F 76% 30.17 in 10.0 mi Calm Calm - N/A   Scattered Clouds
2:15 AM 50.0 °F 42.8 °F 76% 30.16 in 10.0 mi Calm Calm - N/A   Mostly Cloudy
2:35 AM 48.2 °F 44.6 °F 87% 30.16 in 10.0 mi Calm Calm - N/A   Scattered Clouds
2:55 AM 48.2 °F 44.6 °F 87% 30.17 in 10.0 mi Calm Calm - N/A   Clear
3:15 AM 48.2 °F 44.6 °F 87% 30.16 in 10.0 mi Calm Calm - N/A   Clear
3:35 AM 48.2 °F 42.8 °F 82% 30.16 in 10.0 mi Calm Calm - N/A   Clear
3:55 AM 46.4 °F 42.8 °F 87% 30.16 in 10.0 mi Calm Calm - N/A   Clear
4:15 AM 46.4 °F 42.8 °F 87% 30.16 in 10.0 mi Calm Calm - N/A   Clear
4:35 AM 46.4 °F 42.8 °F 87% 30.16 in 10.0 mi Calm Calm - N/A   Clear
4:55 AM 46.4 °F 42.8 °F 87% 30.17 in 10.0 mi Calm Calm - N/A   Clear
5:15 AM 46.4 °F 42.8 °F 87% 30.18 in 10.0 mi Calm Calm - N/A   Clear
5:35 AM 44.6 °F 42.8 °F 93% 30.19 in 10.0 mi Calm Calm - N/A   Clear
5:55 AM 44.6 °F 42.8 °F 93% 30.19 in 10.0 mi Calm Calm - N/A   Clear
6:15 AM 44.6 °F 42.8 °F 93% 30.20 in 10.0 mi Calm Calm - N/A   Clear
6:35 AM 44.6 °F 42.8 °F 93% 30.20 in 10.0 mi Calm Calm - N/A   Clear
6:55 AM 44.6 °F 42.8 °F 93% 30.21 in 10.0 mi Calm Calm - N/A   Clear
7:15 AM 44.6 °F 42.8 °F 93% 30.22 in 10.0 mi Calm Calm - N/A   Clear
7:35 AM 44.6 °F 42.8 °F 93% 30.23 in 10.0 mi Calm Calm - N/A   Clear
7:55 AM 46.4 °F 44.6 °F 93% 30.24 in 10.0 mi Calm Calm - N/A   Clear
8:15 AM 48.2 °F 44.6 °F 87% 30.24 in 10.0 mi Calm Calm - N/A   Clear
8:35 AM 51.8 °F 46.4 °F 82% 30.25 in 10.0 mi Calm Calm - N/A   Clear
8:55 AM 53.6 °F 46.4 °F 77% 30.25 in 10.0 mi Calm Calm - N/A   Clear
9:15 AM 55.4 °F 46.4 °F 72% 30.25 in 10.0 mi Calm Calm - N/A   Clear
9:35 AM 57.2 °F 48.2 °F 72% 30.25 in 10.0 mi Calm Calm - N/A   Clear
9:55 AM 62.6 °F 48.2 °F 59% 30.25 in 10.0 mi Calm Calm - N/A   Clear
10:15 AM 62.6 °F 50.0 °F 63% 30.26 in 10.0 mi Calm Calm - N/A   Clear
10:35 AM 64.4 °F 51.8 °F 64% 30.25 in 10.0 mi Calm Calm - N/A   Clear
10:55 AM 64.4 °F 50.0 °F 59% 30.25 in 10.0 mi Calm Calm - N/A   Clear
11:15 AM 66.2 °F 48.2 °F 52% 30.25 in 10.0 mi Calm Calm - N/A   Clear
11:35 AM 68.0 °F 48.2 °F 49% 30.25 in 10.0 mi Calm Calm - N/A   Clear
11:55 AM 68.0 °F 50.0 °F 52% 30.24 in 10.0 mi Calm Calm - N/A   Clear
12:15 PM 69.8 °F 48.2 °F 46% 30.23 in 10.0 mi Calm Calm - N/A   Clear
12:35 PM 73.4 °F 48.2 °F 41% 30.22 in 10.0 mi Calm Calm - N/A   Clear
12:55 PM 73.4 °F 48.2 °F 41% 30.20 in 10.0 mi Calm Calm - N/A   Clear
1:15 PM 71.6 °F 48.2 °F 43% 30.18 in 10.0 mi Calm Calm - N/A   Clear
1:35 PM 75.2 °F 48.2 °F 38% 30.17 in 10.0 mi Calm Calm - N/A   Clear
1:55 PM 75.2 °F 48.2 °F 38% 30.16 in 10.0 mi Calm Calm - N/A   Clear
2:15 PM 75.2 °F 46.4 °F 36% 30.15 in 10.0 mi Calm Calm - N/A   Clear
2:35 PM 75.2 °F 46.4 °F 36% 30.14 in 10.0 mi Calm Calm - N/A   Clear
2:55 PM 78.8 °F 46.4 °F 32% 30.13 in 10.0 mi Calm Calm - N/A   Clear
3:15 PM 78.8 °F 46.4 °F 32% 30.12 in 10.0 mi West 8.1 mph 12.7 mph N/A   Clear
3:35 PM 77.0 °F 46.4 °F 34% 30.11 in 10.0 mi Calm Calm - N/A   Partly Cloudy
3:55 PM 75.2 °F 42.8 °F 31% 30.10 in 10.0 mi Calm Calm - N/A   Scattered Clouds
4:15 PM 77.0 °F 44.6 °F 32% 30.09 in 10.0 mi Calm Calm - N/A   Scattered Clouds
4:35 PM 75.2 °F 44.6 °F 34% 30.09 in 10.0 mi Calm Calm - N/A   Mostly Cloudy
4:55 PM 78.8 °F 44.6 °F 30% 30.08 in 10.0 mi Calm Calm - N/A   Scattered Clouds
5:15 PM 78.8 °F 44.6 °F 30% 30.07 in 10.0 mi Calm Calm - N/A   Clear
5:35 PM 77.0 °F 42.8 °F 29% 30.08 in 10.0 mi Calm Calm - N/A   Clear
5:55 PM 77.0 °F 42.8 °F 29% 30.07 in 10.0 mi Calm Calm - N/A   Clear
6:15 PM 77.0 °F 42.8 °F 29% 30.07 in 10.0 mi South 5.8 mph - N/A   Clear
6:35 PM 75.2 °F 42.8 °F 31% 30.07 in 10.0 mi Calm Calm - N/A   Clear
6:55 PM 75.2 °F 42.8 °F 31% 30.07 in 10.0 mi Calm Calm - N/A   Clear
7:15 PM 73.4 °F 42.8 °F 33% 30.07 in 10.0 mi Calm Calm - N/A   Clear
7:35 PM 73.4 °F 42.8 °F 33% 30.08 in 10.0 mi Calm Calm - N/A   Clear
7:55 PM 71.6 °F 42.8 °F 35% 30.08 in 10.0 mi Calm Calm - N/A   Clear
8:15 PM 71.6 °F 42.8 °F 35% 30.09 in 10.0 mi Calm Calm - N/A   Clear
8:35 PM 69.8 °F 42.8 °F 38% 30.10 in 10.0 mi Calm Calm - N/A   Clear
8:55 PM 66.2 °F 42.8 °F 43% 30.10 in 10.0 mi Calm Calm - N/A   Clear
9:15 PM 64.4 °F 42.8 °F 45% 30.11 in 10.0 mi Calm Calm - N/A   Clear
9:35 PM 62.6 °F 44.6 °F 52% 30.11 in 10.0 mi Calm Calm - N/A   Clear
9:55 PM 60.8 °F 44.6 °F 55% 30.12 in 10.0 mi Calm Calm - N/A   Clear
10:15 PM 57.2 °F 44.6 °F 63% 30.12 in 10.0 mi Calm Calm - N/A   Clear
10:35 PM 55.4 °F 44.6 °F 67% 30.12 in 10.0 mi Calm Calm - N/A   Clear
10:55 PM 55.4 °F 44.6 °F 67% 30.12 in 10.0 mi Calm Calm - N/A   Clear
11:15 PM 53.6 °F 44.6 °F 72% 30.12 in 10.0 mi Calm Calm - N/A   Clear
11:35 PM 53.6 °F 44.6 °F 72% 30.12 in 10.0 mi Calm Calm - N/A   Clear
11:55 PM 53.6 °F 46.4 °F 77% 30.11 in 10.0 mi Calm Calm - N/A   Clear